This is the latest recevied weather packets stored in our database for station/object K4MUW-4. If no packets are shown the sender has not sent any weather packets the latest 10 day(s).
| Time | Temp. | Humidity | Pressure | Rain* | Wind** | Luminosity | Snow |
|---|---|---|---|---|---|---|---|
| 1777920443 | 23.89° C | 31% | 1013 hPa | 0 mm | 0 m/s | - | - |
| 1777920142 | 23.89° C | 32% | 1013 hPa | 0 mm | 0 m/s | - | - |
| 1777919842 | 23.89° C | 32% | 1013 hPa | 0 mm | 1.34 m/s, 300° | - | - |
| 1777919542 | 23.89° C | 31% | 1013 hPa | 0 mm | 1.34 m/s, 183° | - | - |
| 1777919241 | 23.89° C | 31% | 1013 hPa | 0 mm | 3.13 m/s, 212° | - | - |
| 1777918941 | 23.89° C | 32% | 1013 hPa | 0 mm | 1.79 m/s, 177° | - | - |
| 1777918631 | 23.33° C | 32% | 1013 hPa | 0 mm | 2.24 m/s, 191° | - | - |
| 1777918331 | 23.33° C | 32% | 1013 hPa | 0 mm | 1.79 m/s, 178° | - | - |
| 1777918031 | 23.33° C | 32% | 1013 hPa | 0 mm | 1.79 m/s, 191° | - | - |
| 1777917730 | 23.33° C | 32% | 1013 hPa | 0 mm | 2.24 m/s, 181° | - | - |
| 1777917430 | 23.33° C | 33% | 1013 hPa | 0 mm | 0 m/s | - | - |
| 1777917129 | 23.33° C | 33% | 1013 hPa | 0 mm | 0 m/s | - | - |
| 1777916825 | 22.78° C | 33% | 1013 hPa | 0 mm | 2.24 m/s, 199° | - | - |
| 1777916519 | 22.78° C | 33% | 1013 hPa | 0 mm | 1.34 m/s, 219° | - | - |
| 1777916205 | 22.78° C | 33% | 1013 hPa | 0 mm | 1.79 m/s, 158° | - | - |
| 1777915904 | 22.78° C | 33% | 1013 hPa | 0 mm | 1.34 m/s, 296° | - | - |
| 1777915637 | 22.78° C | 33% | 1013 hPa | 0 mm | 2.68 m/s, 191° | - | - |
| 1777915604 | 22.78° C | 33% | 1013 hPa | 0 mm | 2.68 m/s, 191° | - | - |
| 1777915303 | 22.22° C | 34% | 1013 hPa | 0 mm | 1.79 m/s, 195° | - | - |
| 1777915003 | 22.22° C | 34% | 1014 hPa | 0 mm | 0 m/s | - | - |
| 1777914703 | 22.22° C | 35% | 1014 hPa | 0 mm | 1.34 m/s, 180° | - | - |
| 1777914402 | 22.22° C | 36% | 1014 hPa | 0 mm | 0 m/s | - | - |
| 1777914102 | 22.22° C | 35% | 1014 hPa | 0 mm | 0 m/s | - | - |
| 1777913802 | 21.67° C | 35% | 1014 hPa | 0 mm | 1.79 m/s, 179° | - | - |
| 1777913501 | 21.67° C | 37% | 1014 hPa | 0 mm | 0 m/s | - | - |
* Rain latest hour (hover to see other rain measurements)
** Current wind speed in m/s (hover to see current wind gust speed)